NORBI (46494 NORAD) Tracking and Keplerian Element Data

This shows tracking and keplerian element data for the satellite.

Feedback or suggestion? Click here.




ElementValue
Catalog46494
NameNORBI
Epoch Orbit475
Epoch Day304.29628728
Epoch Year2020
RAAN237.4915
Inclination97.6704
Eccentricity0.0018953
Argument of Perigee135.6187
Mean Anonmoly224.656
Mean Motion15.03339878
Decay Rate1.497E-05
L11 46494U 20068J 20304.29628728 .00001497 00000-0 11442-3 0 9992
L22 46494 97.6704 237.4915 0018953 135.6187 224.6560 15.03339878 4758

Live tracking and technical data element details for NORBI (NORAD 46494). NORBI can be tracked NOW for your location showing map with azimuth and elevation plus other details from your city location.

Track the satellite on the map from your city or location and see movement details for azimuth, elevation, latitude, longitude, range, height, and movement on the map or in text.







IsCatalogInMostPopularTable: catalog: 46494, numindb: 9
Update: records affected: 1



GetName: 46494 NORBI

Hit Count: updated at: Sat, 31 Oct 2020 08:01:10 GMT